Weather History for Durango, CO

Change the Weather History Date:

Sunday, March 17, 2013

  Actual Average Record
Temperature  
Mean Temperature 43 °F 38 °F  
Max Temperature 59 °F 53 °F 73 °F (2007)
Min Temperature 27 °F 23 °F 10 °F (1980)
Degree Days  
Heating Degree Days 22 27  
Month to date heating degree days 433 501  
Since 1 July heating degree days 5779 5676  
Cooling Degree Days 0 0  
Month to date cooling degree days 0 0  
Year to date cooling degree days 0 0  
Moisture  
Dew Point 20 °F    
Average Humidity 48    
Maximum Humidity 78    
Minimum Humidity 17    
Precipitation  
Precipitation 0.00 in 0.03 in 0.31 in (2003)
Month to date precipitation 0.40 0.71  
Year to date precipitation 2.61 2.99  
Sea Level Pressure  
Sea Level Pressure 29.78 in    
Wind  
Wind Speed 11 mph (NW)    
Max Wind Speed 33 mph    
Max Gust Speed 45 mph    
Visibility 10 miles    
Events      
T = Trace of Precipitation, MM = Missing Value Source: NWS Daily Summary

Daily Weather History Graph

Daily Weather History Graph

Search for Another Location

Airport:

Trip Planner

Search our weather history database for the weather conditions in past years. The results will help you decide how hot, cold, wet, or windy it might be!

Date:

Astronomy

Mar. 17, 2013 Rise Set
Actual Time 7:18 AM MDT 7:20 PM MDT
Civil Twilight 6:52 AM MDT 7:46 PM MDT
Nautical Twilight 6:22 AM MDT 8:16 PM MDT
Astronomical Twilight 5:51 AM MDT 8:47 PM MDT
Moon 10:41 AM MDT (3/17) 12:23 AM MDT (3/17)
Length of Visible Light 12h 53m
Length of Day
12h 01m
Waxing Crescent, 32% of the Moon is Illuminated
Mar 17
Waxing Crescent
Mar 19
First Quarter
Mar 27
Full
Apr 2
Last Quarter
Apr 10
New

Hourly Weather History & Observations

Time (MDT) Temp. Windchill Dew Point Humidity Pressure Visibility Wind Dir Wind Speed Gust Speed Precip Events Conditions
12:53 AM 36.0 °F 29.0 °F 26.1 °F 67% 29.83 in 10.0 mi North 9.2 mph - N/A   Clear
1:53 AM 33.1 °F - 25.0 °F 72% 29.81 in 10.0 mi Calm Calm - N/A   Clear
2:53 AM 30.9 °F - 24.1 °F 76% 29.82 in 10.0 mi Calm Calm - N/A   Clear
4:53 AM 28.0 °F 22.8 °F 23.0 °F 81% 29.82 in 10.0 mi ENE 4.6 mph - N/A   Clear
5:53 AM 30.0 °F - 24.1 °F 79% 29.81 in 10.0 mi Calm Calm - N/A   Partly Cloudy
6:53 AM 30.9 °F - 25.0 °F 79% 29.82 in 10.0 mi Calm Calm - N/A   Overcast
7:53 AM 33.1 °F - 26.1 °F 75% 29.82 in 10.0 mi Calm Calm - N/A   Overcast
8:53 AM 35.1 °F 29.3 °F 26.1 °F 70% 29.83 in 10.0 mi SE 6.9 mph - N/A   Overcast
9:53 AM 39.0 °F 35.7 °F 28.0 °F 65% 29.82 in 10.0 mi Variable 4.6 mph - N/A   Mostly Cloudy
10:53 AM 45.0 °F 41.8 °F 28.9 °F 53% 29.78 in 10.0 mi Variable 5.8 mph - N/A   Clear
11:53 AM 53.1 °F - 27.0 °F 37% 29.75 in 10.0 mi WSW 16.1 mph 25.3 mph N/A   Scattered Clouds
12:24 PM 51.8 °F - 24.8 °F 35% 29.82 in 10.0 mi West 15.0 mph 26.5 mph N/A   Mostly Cloudy
12:53 PM 54.0 °F - 19.0 °F 25% 29.73 in 10.0 mi West 18.4 mph 27.6 mph N/A   Scattered Clouds
2:53 PM 57.9 °F - 12.0 °F 16% 29.67 in 10.0 mi West 18.4 mph 38.0 mph N/A   Partly Cloudy
3:53 PM 57.0 °F - 15.1 °F 19% 29.68 in 10.0 mi West 29.9 mph 42.6 mph N/A   Overcast
4:13 PM 48.2 °F - 24.8 °F 40% 29.77 in 10.0 mi NNW 29.9 mph 42.6 mph N/A   Mostly Cloudy
4:53 PM 52.0 °F - 24.1 °F 34% 29.74 in 10.0 mi NNW 18.4 mph 26.5 mph N/A   Clear
5:53 PM 52.0 °F - 14.0 °F 22% 29.72 in 10.0 mi NW 29.9 mph 41.4 mph N/A   Partly Cloudy
6:53 PM 48.9 °F - 14.0 °F 25% 29.75 in 10.0 mi NW 24.2 mph 32.2 mph N/A   Partly Cloudy
7:53 PM 48.0 °F - 15.1 °F 27% 29.77 in 10.0 mi WNW 12.7 mph - N/A   Mostly Cloudy
8:53 PM 45.0 °F 41.8 °F 12.0 °F 26% 29.80 in 10.0 mi NW 5.8 mph - N/A   Clear
9:53 PM 45.0 °F 39.3 °F 10.0 °F 24% 29.82 in 10.0 mi NNW 11.5 mph - N/A   Mostly Cloudy
10:53 PM 42.1 °F 36.6 °F 9.0 °F 26% 29.82 in 10.0 mi NNW 9.2 mph - N/A   Clear
11:53 PM 39.0 °F 32.8 °F 10.9 °F 32% 29.81 in 10.0 mi NNW 9.2 mph 20.7 mph N/A   Clear